Regional Weather Roundup
Issued by NWS Green Bay, WI

Home | Current Version | Previous Version | Graphics & Text | Print | Product List | Glossary Off
Versions: 1 2 3 4 5 6 7 8 9 10 11 12 13 14 15 16 17 18 19 20 21 22 23 24 25 26 27 28 29 30 31 32 33 34 35 36 37 38 39 40 41 42 43 44 45 46 47 48 49 50

000
ASUS43 KGRB 181459
RWRGRB

NORTH-CENTRAL AND NORTHEAST WISCONSIN REGIONAL WEATHER ROUNDUP
NATIONAL WEATHER SERVICE GREEN BAY WI
1000 AM CDT THU SEP 18 2014

WIZ005-009-010>012-018-019-181600-
NORTH CENTRAL WISCONSIN

CITY           SKY/WX    TMP DP  RH WIND       PRES   REMARKS
IRONWOOD       CLOUDY    43  39  87 S6        30.16R
MANITOWISH WTR NOT AVBL
ARBOR VITAE    NOT AVBL
EAGLE RIVER    NOT AVBL
LAND O LAKES   NOT AVBL
RHINELANDER    CLOUDY    40  37  89 SE7       30.20R
PHILLIPS       CLOUDY    46  43  91 SE5       30.16S
ANTIGO         NOT AVBL
TOMAHAWK       NOT AVBL
MERRILL        NOT AVBL
$$

WIZ013-073-181600-
NORTHEAST WISCONSIN

CITY           SKY/WX    TMP DP  RH WIND       PRES   REMARKS
IRON MOUNTAIN  PTSUNNY   46  35  65 E7        30.20R
MARINETTE      CLOUDY    48  37  66 E6        30.21R
$$

WIZ017-030-035>037-045-181600-
CENTRAL WISCONSIN

CITY           SKY/WX    TMP DP  RH WIND       PRES   REMARKS
MEDFORD        NOT AVBL
WAUSAU         CLOUDY    43  39  86 SE10      30.19R
MOSINEE        CLOUDY    43  43 100 E9        30.21R
MARSHFIELD     CLOUDY    45  43  93 SE12      30.19R FOG
WISC RAPIDS    CLOUDY    46  43  89 SE7       30.21R
STEVENS POINT  NOT AVBL
WAUPACA        NOT AVBL
SHAWANO        CLOUDY    47  38  72 NE5       30.22S
CLINTONVILLE   CLOUDY    45  37  76 E3        30.22S
$$

WIZ038-039-048-051-181600-
FOX VALLEY

CITY           SKY/WX    TMP DP  RH WIND       PRES   REMARKS
NWS GREEN BAY  CLOUDY    48  41  76 N7        30.22R
APPLETON       NOT AVBL
OSHKOSH        CLOUDY    50  44  80 E7        30.20R
FOND DU LAC    CLOUDY    49  43  80 NE6       30.21R
$$

WIZ022-050-052-181600-
EAST CENTRAL WISCONSIN

CITY           SKY/WX    TMP DP  RH WIND       PRES   REMARKS
STURGEON BAY   CLOUDY    48  39  71 NE6       30.21R
MANITOWOC      NOT AVBL
SHEBOYGAN      CLOUDY    51  44  77 N7        30.20R
$$

LMZ563-521-522-541>543-181600-
LAKESHORE

STATION/POSITION TIME  TEMP    WIND        PRES    VSBY  WAVE
                       AIR SEA DIR/SP/G                  HT/PER
                 (UTC) (F)     (DEG/KT/KT) (MB)    (MI)  (FT/S)
SHEBOYGAN LKSHOR 1400   47 48  350/ 13/ 15 1022.5R
KEWAUNEE LKSHORE 1400   49      10/  7/ 10 1021.6R
NORTHPORT PIER   1400   48      20/  8/ 12 1022.4S
N MID LAKE BUOY  1400   49 58   40/ 10/ 14 1022.3R         2/ 4
S GREEN BAY BUOY 1400   47     VRB 12/ 16  1023.2R
CHAMBERS ISLAND  1400   48      30/  9/ 12 1023.0R
MENOMINEE LKSHOR 1400   47      10/  8/ 12 1023.4R
$$



USA.gov is the U.S. government's official web portal to all federal, state and local government web resources and services.